Location: Caixon
(43.4106°N, 0.0273°E)
Time: 15:32:36
(UTC+00:00)

CZ-2C R/B - Pass Details

Date: 16 October 2021
Orbit: 667 x 785 km, 98.2° (Epoch: 28 November)

Event Time Altitude Azimuth Distance (km) Brightness Sun altitude
Rises 04:03:19 0° 9° (N) 3,205 6.0 -24.6°
Reaches altitude 10° 04:05:41 10° 6° (N) 2,259 5.1 -24.2°
Enters shadow 04:10:21 59° 300° (WNW) 833 2.4 -23.3°
